Zurück zum Katalog

NUSAT-50

NANCY ROMAN

AktivWissenschaftSSO
NORAD 60493·PAYLOAD·🇦🇷 Argentina

Gestartet Aug 16, 2024 von Vandenberg Space Force Base

Loading…

Nächste Überflüge (nächste 24 Stunden)

TLE

AktuellSource: Space-Track

Epoche: Sep 14, 2026, 11:34 UTC

1 60493U 24149AB  26257.48243741  .00006976  00000-0  23919-3 0  9992
2 60493  97.3732 338.1568 0002112 208.2294 151.8833 15.30492643115780

Verfolge NUSAT-50 in Echtzeit mit AllMySat

Download on the App Store